When you browse on this site, cookies collect data to enhance your experience and personalize the content and advertising you see.
Visit our Privacy Policy to learn more. By continuing to use the site, you agree to this use of cookies and data.
  • In Deutschland
  • Länderverzeichnis
  • Für 7 Tage
  • Wassertemperatur
  • Wetterkarte
  • Widgets
  • user-avatar
    Anmelden

    Stündliche Wetter Enkamp

    Heute, 12 Dezember, Donnerstag

    Zeit Temperatur Niederschläge Wind Luftdruck Luftfeuchtigkeit
    00:00 -4°C° 0.7 mm 2 m/S 619 mmHg 94%
    01:00 -4°C° 0.9 mm 2 m/S 618 mmHg 95%
    02:00 -4°C° 0.9 mm 2 m/S 618 mmHg 96%
    03:00 -4°C° 0.9 mm 2 m/S 618 mmHg 96%
    04:00 -4°C° 0.6 mm 2 m/S 618 mmHg 96%
    05:00 -2°C° 0.6 mm 1 m/S 618 mmHg 96%
    06:00 -1°C° 0.6 mm 1 m/S 618 mmHg 96%
    07:00 -1°C° 0.3 mm 1 m/S 618 mmHg 93%
    08:00 0°C° 0.3 mm 1 m/S 618 mmHg 91%
    09:00 0°C° 0.3 mm 1 m/S 618 mmHg 88%
    10:00 +1°C° 0.2 mm 1 m/S 618 mmHg 85%
    11:00 +2°C° 0.2 mm 1 m/S 618 mmHg 82%
    12:00 +3°C° 0.2 mm 1 m/S 618 mmHg 79%
    13:00 +2°C° 0.1 mm 1 m/S 617 mmHg 82%
    14:00 +2°C° 0.1 mm 1 m/S 616 mmHg 86%
    15:00 +2°C° 0.1 mm 1 m/S 615 mmHg 89%
    16:00 -1°C° 0.4 mm 2 m/S 614 mmHg 91%
    17:00 -2°C° 0.4 mm 2 m/S 613 mmHg 93%
    18:00 -2°C° 0.4 mm 2 m/S 612 mmHg 96%
    19:00 -2°C° 2 mm 2 m/S 612 mmHg 96%
    20:00 -2°C° 2 mm 2 m/S 611 mmHg 97%
    21:00 -2°C° 2 mm 2 m/S 611 mmHg 97%
    22:00 -2°C° 2.5 mm 2 m/S 611 mmHg 97%
    23:00 +1°C° 2.5 mm 1 m/S 611 mmHg 98%

    Morgen, 13 Dezember, Freitag

    Zeit Temperatur Niederschläge Wind Luftdruck Luftfeuchtigkeit
    00:00 +1°C° 2.5 mm 1 m/S 611 mmHg 98%
    01:00 +1°C° 2 mm 1 m/S 611 mmHg 98%
    02:00 +1°C° 2 mm 1 m/S 610 mmHg 98%
    03:00 -1°C° 2 mm 2 m/S 610 mmHg 98%
    04:00 +2°C° 1.9 mm 1 m/S 610 mmHg 98%
    05:00 +2°C° 1.9 mm 1 m/S 610 mmHg 98%
    06:00 +2°C° 1.9 mm 1 m/S 610 mmHg 99%
    07:00 +2°C° 2.9 mm 1 m/S 610 mmHg 98%
    08:00 +1°C° 2.9 mm 2 m/S 610 mmHg 98%
    09:00 +2°C° 2.9 mm 2 m/S 611 mmHg 98%
    10:00 +2°C° 3.3 mm 2 m/S 611 mmHg 98%
    11:00 +2°C° 3.3 mm 2 m/S 611 mmHg 97%
    12:00 +1°C° 3.3 mm 3 m/S 612 mmHg 97%
    13:00 +1°C° 1.6 mm 3 m/S 612 mmHg 97%
    14:00 +1°C° 1.6 mm 3 m/S 612 mmHg 97%
    15:00 +1°C° 1.6 mm 3 m/S 612 mmHg 97%
    16:00 +1°C° 2.8 mm 3 m/S 613 mmHg 98%
    17:00 0°C° 2.8 mm 3 m/S 613 mmHg 98%
    18:00 +1°C° 2.8 mm 2 m/S 614 mmHg 99%
    19:00 +1°C° 2.4 mm 2 m/S 614 mmHg 99%
    20:00 +2°C° 2.4 mm 2 m/S 615 mmHg 99%
    21:00 +2°C° 2.4 mm 2 m/S 615 mmHg 99%
    22:00 +2°C° 1.5 mm 2 m/S 616 mmHg 98%
    23:00 +2°C° 1.5 mm 2 m/S 616 mmHg 98%

    übermorgen, 14 Dezember, Samstag

    Zeit Temperatur Niederschläge Wind Luftdruck Luftfeuchtigkeit
    00:00 +2°C° 1.5 mm 2 m/S 617 mmHg 98%
    01:00 +2°C° 0 mm 2 m/S 617 mmHg 98%
    02:00 +1°C° 0 mm 3 m/S 617 mmHg 97%
    03:00 0°C° 0 mm 3 m/S 617 mmHg 97%
    04:00 0°C° 0 mm 3 m/S 617 mmHg 96%
    05:00 0°C° 0 mm 3 m/S 617 mmHg 95%
    06:00 -1°C° 0 mm 2 m/S 618 mmHg 94%
    07:00 +1°C° 0 mm 2 m/S 618 mmHg 93%
    08:00 +1°C° 0 mm 2 m/S 619 mmHg 92%
    09:00 +1°C° 0 mm 2 m/S 619 mmHg 91%
    10:00 +3°C° 0 mm 1 m/S 620 mmHg 91%
    11:00 +4°C° 0 mm 1 m/S 620 mmHg 90%
    12:00 +4°C° 0 mm 0 m/S 620 mmHg 90%
    13:00 +3°C° 0 mm 0 m/S 620 mmHg 91%
    14:00 +4°C° 0 mm 1 m/S 620 mmHg 92%
    15:00 +4°C° 0 mm 1 m/S 619 mmHg 93%
    16:00 +3°C° 0 mm 1 m/S 619 mmHg 92%
    17:00 +1°C° 0 mm 1 m/S 619 mmHg 91%
    18:00 0°C° 0 mm 1 m/S 619 mmHg 90%
    19:00 0°C° 0 mm 1 m/S 619 mmHg 88%
    20:00 0°C° 0 mm 1 m/S 619 mmHg 85%
    21:00 0°C° 0 mm 1 m/S 619 mmHg 83%
    22:00 0°C° 0 mm 1 m/S 619 mmHg 82%
    23:00 0°C° 0 mm 1 m/S 619 mmHg 82%

    15 Dezember, Sonntag

    Zeit Temperatur Niederschläge Wind Luftdruck Luftfeuchtigkeit
    00:00 -1°C° 0 mm 1 m/S 618 mmHg 82%
    01:00 -1°C° 0 mm 1 m/S 618 mmHg 81%
    02:00 -1°C° 0 mm 1 m/S 618 mmHg 79%
    03:00 -1°C° 0 mm 1 m/S 618 mmHg 78%
    04:00 -1°C° 0 mm 1 m/S 618 mmHg 77%
    05:00 -1°C° 0 mm 1 m/S 618 mmHg 75%
    06:00 -1°C° 0 mm 1 m/S 618 mmHg 74%
    07:00 0°C° 0 mm 1 m/S 619 mmHg 75%
    08:00 +1°C° 0 mm 1 m/S 620 mmHg 76%
    09:00 +2°C° 0 mm 1 m/S 620 mmHg 78%
    10:00 +3°C° 0 mm 1 m/S 621 mmHg 80%
    11:00 +4°C° 0 mm 1 m/S 621 mmHg 83%
    12:00 +5°C° 0 mm 1 m/S 621 mmHg 86%
    13:00 +4°C° 0 mm 2 m/S 620 mmHg 87%
    14:00 +3°C° 0 mm 2 m/S 620 mmHg 89%
    15:00 +3°C° 0 mm 2 m/S 619 mmHg 90%
    16:00 +2°C° 0 mm 2 m/S 619 mmHg 91%
    17:00 +1°C° 0 mm 2 m/S 619 mmHg 91%
    18:00 +1°C° 0 mm 2 m/S 619 mmHg 91%
    19:00 +1°C° 0 mm 2 m/S 619 mmHg 89%
    20:00 +1°C° 0 mm 2 m/S 619 mmHg 87%
    21:00 +1°C° 0 mm 2 m/S 619 mmHg 85%
    22:00 -1°C° 0 mm 2 m/S 618 mmHg 83%
    23:00 -1°C° 0 mm 2 m/S 618 mmHg 82%

    16 Dezember, Montag

    Zeit Temperatur Niederschläge Wind Luftdruck Luftfeuchtigkeit
    00:00 -1°C° 0 mm 2 m/S 618 mmHg 80%
    01:00 -1°C° 0 mm 2 m/S 617 mmHg 78%
    02:00 -2°C° 0 mm 2 m/S 617 mmHg 76%
    03:00 -2°C° 0 mm 2 m/S 616 mmHg 74%
    04:00 -2°C° 0 mm 2 m/S 616 mmHg 74%
    05:00 -2°C° 0 mm 2 m/S 616 mmHg 74%
    06:00 -2°C° 0 mm 2 m/S 616 mmHg 74%
    07:00 -2°C° 0 mm 3 m/S 616 mmHg 76%
    08:00 -1°C° 0 mm 3 m/S 616 mmHg 78%
    09:00 0°C° 0 mm 3 m/S 617 mmHg 79%
    10:00 +1°C° 0 mm 3 m/S 616 mmHg 81%
    11:00 +2°C° 0 mm 3 m/S 616 mmHg 82%
    12:00 +1°C° 0 mm 4 m/S 616 mmHg 84%
    13:00 +1°C° 0 mm 4 m/S 616 mmHg 86%
    14:00 +1°C° 0 mm 4 m/S 616 mmHg 89%
    15:00 +2°C° 0 mm 3 m/S 615 mmHg 91%
    16:00 +2°C° 0 mm 3 m/S 615 mmHg 91%
    17:00 +1°C° 0 mm 3 m/S 614 mmHg 92%
    18:00 +1°C° 0 mm 3 m/S 614 mmHg 92%
    19:00 +1°C° 0 mm 3 m/S 614 mmHg 92%
    20:00 +1°C° 0 mm 3 m/S 614 mmHg 92%
    21:00 +1°C° 0 mm 3 m/S 614 mmHg 91%
    22:00 +1°C° 0 mm 3 m/S 614 mmHg 91%
    23:00 +1°C° 0 mm 3 m/S 614 mmHg 91%

    17 Dezember, Dienstag

    Zeit Temperatur Niederschläge Wind Luftdruck Luftfeuchtigkeit
    00:00 +1°C° 0 mm 3 m/S 614 mmHg 91%
    01:00 +1°C° 0 mm 2 m/S 613 mmHg 90%
    02:00 +1°C° 0 mm 2 m/S 613 mmHg 89%
    03:00 -1°C° 0 mm 2 m/S 613 mmHg 88%
    04:00 -1°C° 0.1 mm 2 m/S 613 mmHg 88%
    05:00 -1°C° 0.1 mm 2 m/S 613 mmHg 89%
    06:00 -1°C° 0.1 mm 2 m/S 613 mmHg 90%
    07:00 +2°C° 0 mm 1 m/S 614 mmHg 88%
    08:00 +2°C° 0 mm 1 m/S 615 mmHg 86%
    09:00 +3°C° 0 mm 1 m/S 615 mmHg 85%
    10:00 +4°C° 0 mm 1 m/S 616 mmHg 86%
    11:00 +4°C° 0 mm 1 m/S 616 mmHg 86%
    12:00 +5°C° 0 mm 1 m/S 616 mmHg 87%
    13:00 +4°C° 0.1 mm 1 m/S 617 mmHg 90%
    14:00 +4°C° 0.1 mm 1 m/S 617 mmHg 92%
    15:00 +3°C° 0.1 mm 1 m/S 617 mmHg 94%
    16:00 +3°C° 0.2 mm 1 m/S 617 mmHg 95%
    17:00 +3°C° 0.2 mm 1 m/S 618 mmHg 96%
    18:00 +2°C° 0.2 mm 1 m/S 618 mmHg 98%
    19:00 +2°C° 0.1 mm 1 m/S 619 mmHg 97%
    20:00 +2°C° 0.1 mm 1 m/S 620 mmHg 97%
    21:00 +2°C° 0.1 mm 1 m/S 621 mmHg 97%
    22:00 +1°C° 0 mm 0 m/S 621 mmHg 97%
    23:00 +1°C° 0 mm 0 m/S 621 mmHg 96%
    Mehr zeigen